Year,Month,Day,Hour,Minute,Value (Times are PST for temperature in C)
2015,07,18,00,00,23.10
2015,07,18,00,01,23.10
2015,07,18,00,02,23.10
2015,07,18,00,03,23.10
2015,07,18,00,04,23.00
2015,07,18,00,05,23.00
2015,07,18,00,06,23.00
2015,07,18,00,07,22.90
2015,07,18,00,08,23.00
2015,07,18,00,09,23.00
2015,07,18,00,10,23.00
2015,07,18,00,11,23.00
2015,07,18,00,12,22.90
2015,07,18,00,13,22.90
2015,07,18,00,14,22.90
2015,07,18,00,15,22.90
2015,07,18,00,16,22.90
2015,07,18,00,17,22.90
2015,07,18,00,18,22.90
2015,07,18,00,19,22.90
2015,07,18,00,20,22.90
2015,07,18,00,21,22.90
2015,07,18,00,22,22.90
2015,07,18,00,23,22.90
2015,07,18,00,24,22.90
2015,07,18,00,25,22.80
2015,07,18,00,26,22.80
2015,07,18,00,27,22.80
2015,07,18,00,28,22.80
2015,07,18,00,29,22.80
2015,07,18,00,30,22.80
2015,07,18,00,31,22.80
2015,07,18,00,32,22.80
2015,07,18,00,33,22.80
2015,07,18,00,34,22.80
2015,07,18,00,35,22.80
2015,07,18,00,36,22.70
2015,07,18,00,37,22.70
2015,07,18,00,38,22.70
2015,07,18,00,39,22.70
2015,07,18,00,40,22.70
2015,07,18,00,41,22.70
2015,07,18,00,42,22.70
2015,07,18,00,43,22.70
2015,07,18,00,44,22.70
2015,07,18,00,45,22.70
2015,07,18,00,46,22.70
2015,07,18,00,47,22.70
2015,07,18,00,48,22.70
2015,07,18,00,49,22.70
2015,07,18,00,50,22.70
2015,07,18,00,51,22.70
2015,07,18,00,52,22.70
2015,07,18,00,53,22.70
2015,07,18,00,54,22.70
2015,07,18,00,55,22.70
2015,07,18,00,56,22.70
2015,07,18,00,57,22.80
2015,07,18,00,58,22.80
2015,07,18,00,59,22.80
2015,07,18,01,00,22.80
2015,07,18,01,01,22.80
2015,07,18,01,02,22.80
2015,07,18,01,03,22.80
2015,07,18,01,04,22.80
2015,07,18,01,05,22.80
2015,07,18,01,06,22.70
2015,07,18,01,07,22.70
2015,07,18,01,08,22.70
2015,07,18,01,09,22.70
2015,07,18,01,10,22.60
2015,07,18,01,11,22.60
2015,07,18,01,12,22.60
2015,07,18,01,13,22.50
2015,07,18,01,14,22.50
2015,07,18,01,15,22.50
2015,07,18,01,16,22.40
2015,07,18,01,17,22.40
2015,07,18,01,18,22.40
2015,07,18,01,19,22.30
2015,07,18,01,20,22.30
2015,07,18,01,21,22.30
2015,07,18,01,22,22.30
2015,07,18,01,23,22.30
2015,07,18,01,24,22.30
2015,07,18,01,25,22.30
2015,07,18,01,26,22.30
2015,07,18,01,27,22.30
2015,07,18,01,28,22.20
2015,07,18,01,29,22.20
2015,07,18,01,30,22.20
2015,07,18,01,31,22.20
2015,07,18,01,32,22.20
2015,07,18,01,33,22.20
2015,07,18,01,34,22.20
2015,07,18,01,35,22.20
2015,07,18,01,36,22.20
2015,07,18,01,37,22.20
2015,07,18,01,38,22.20
2015,07,18,01,39,22.20
2015,07,18,01,40,22.20
2015,07,18,01,41,22.20
2015,07,18,01,42,22.20
2015,07,18,01,43,22.20
2015,07,18,01,44,22.20
2015,07,18,01,45,22.20
2015,07,18,01,46,22.30
2015,07,18,01,47,22.30
2015,07,18,01,48,22.30
2015,07,18,01,49,22.30
2015,07,18,01,50,22.30
2015,07,18,01,51,22.30
2015,07,18,01,52,22.30
2015,07,18,01,53,22.30
2015,07,18,01,54,22.30
2015,07,18,01,55,22.30
2015,07,18,01,56,22.30
2015,07,18,01,57,22.30
2015,07,18,01,58,22.30
2015,07,18,01,59,22.30
2015,07,18,02,00,22.30
2015,07,18,02,01,22.30
2015,07,18,02,02,22.30
2015,07,18,02,03,22.30
2015,07,18,02,04,22.20
2015,07,18,02,05,22.20
2015,07,18,02,06,22.20
2015,07,18,02,07,22.20
2015,07,18,02,08,22.20
2015,07,18,02,09,22.20
2015,07,18,02,10,22.20
2015,07,18,02,11,22.20
2015,07,18,02,12,22.20
2015,07,18,02,13,22.20
2015,07,18,02,14,22.20
2015,07,18,02,15,22.20
2015,07,18,02,16,22.20
2015,07,18,02,17,22.20
2015,07,18,02,18,22.10
2015,07,18,02,19,22.10
2015,07,18,02,20,22.10
2015,07,18,02,21,22.10
2015,07,18,02,22,22.10
2015,07,18,02,23,22.10
2015,07,18,02,24,22.10
2015,07,18,02,25,22.10
2015,07,18,02,26,22.10
2015,07,18,02,27,22.10
2015,07,18,02,28,22.10
2015,07,18,02,29,22.10
2015,07,18,02,30,22.10
2015,07,18,02,31,22.10
2015,07,18,02,32,22.10
2015,07,18,02,33,22.10
2015,07,18,02,34,22.10
2015,07,18,02,35,22.10
2015,07,18,02,36,22.10
2015,07,18,02,37,22.10
2015,07,18,02,38,22.10
2015,07,18,02,39,22.10
2015,07,18,02,40,22.00
2015,07,18,02,41,22.00
2015,07,18,02,42,22.00
2015,07,18,02,43,22.00
2015,07,18,02,44,21.90
2015,07,18,02,45,21.90
2015,07,18,02,46,21.90
2015,07,18,02,47,21.90
2015,07,18,02,48,21.90
2015,07,18,02,49,21.90
2015,07,18,02,50,21.90
2015,07,18,02,51,21.80
2015,07,18,02,52,21.80
2015,07,18,02,53,21.80
2015,07,18,02,54,21.80
2015,07,18,02,55,21.80
2015,07,18,02,56,21.80
2015,07,18,02,57,21.80
2015,07,18,02,58,21.80
2015,07,18,02,59,21.80
2015,07,18,03,00,21.90
2015,07,18,03,01,21.90
2015,07,18,03,02,21.90
2015,07,18,03,03,21.90
2015,07,18,03,04,21.80
2015,07,18,03,05,21.80
2015,07,18,03,06,21.80
2015,07,18,03,07,21.80
2015,07,18,03,08,21.80
2015,07,18,03,09,21.70
2015,07,18,03,10,21.70
2015,07,18,03,11,21.70
2015,07,18,03,12,21.70
2015,07,18,03,13,21.70
2015,07,18,03,14,21.70
2015,07,18,03,15,21.70
2015,07,18,03,16,21.60
2015,07,18,03,17,21.60
2015,07,18,03,18,21.60
2015,07,18,03,19,21.60
2015,07,18,03,20,21.60
2015,07,18,03,21,21.60
2015,07,18,03,22,21.60
2015,07,18,03,23,21.60
2015,07,18,03,24,21.50
2015,07,18,03,25,21.50
2015,07,18,03,26,21.50
2015,07,18,03,27,21.40
2015,07,18,03,28,21.40
2015,07,18,03,29,21.30
2015,07,18,03,30,21.30
2015,07,18,03,31,21.30
2015,07,18,03,32,21.30
2015,07,18,03,33,21.20
2015,07,18,03,34,21.20
2015,07,18,03,35,21.20
2015,07,18,03,36,21.20
2015,07,18,03,37,21.20
2015,07,18,03,38,21.10
2015,07,18,03,39,21.10
2015,07,18,03,40,21.10
2015,07,18,03,41,21.10
2015,07,18,03,42,21.00
2015,07,18,03,43,21.00
2015,07,18,03,44,20.90
2015,07,18,03,45,20.90
2015,07,18,03,46,20.90
2015,07,18,03,47,20.90
2015,07,18,03,48,20.80
2015,07,18,03,49,20.80
2015,07,18,03,50,20.80
2015,07,18,03,51,20.80
2015,07,18,03,52,20.80
2015,07,18,03,53,20.80
2015,07,18,03,54,20.80
2015,07,18,03,55,20.80
2015,07,18,03,56,20.70
2015,07,18,03,57,20.70
2015,07,18,03,58,20.70
2015,07,18,03,59,20.70
2015,07,18,04,00,20.70
2015,07,18,04,01,20.70
2015,07,18,04,02,20.70
2015,07,18,04,03,20.60
2015,07,18,04,04,20.60
2015,07,18,04,05,20.60
2015,07,18,04,06,20.60
2015,07,18,04,07,20.60
2015,07,18,04,08,20.60
2015,07,18,04,09,20.60
2015,07,18,04,10,20.60
2015,07,18,04,11,20.50
2015,07,18,04,12,20.50
2015,07,18,04,13,20.50
2015,07,18,04,14,20.50
2015,07,18,04,15,20.40
2015,07,18,04,16,20.40
2015,07,18,04,17,20.40
2015,07,18,04,18,20.30
2015,07,18,04,19,20.30
2015,07,18,04,20,20.30
2015,07,18,04,21,20.30
2015,07,18,04,22,20.30
2015,07,18,04,23,20.20
2015,07,18,04,24,20.20
2015,07,18,04,25,20.20
2015,07,18,04,26,20.20
2015,07,18,04,27,20.10
2015,07,18,04,28,20.10
2015,07,18,04,29,20.00
2015,07,18,04,30,20.00
2015,07,18,04,31,19.90
2015,07,18,04,32,19.90
2015,07,18,04,33,19.90
2015,07,18,04,34,19.80
2015,07,18,04,35,19.80
2015,07,18,04,36,19.80
2015,07,18,04,37,19.80
2015,07,18,04,38,19.80
2015,07,18,04,39,19.80
2015,07,18,04,40,19.80
2015,07,18,04,41,19.70
2015,07,18,04,42,19.70
2015,07,18,04,43,19.70
2015,07,18,04,44,19.70
2015,07,18,04,45,19.70
2015,07,18,04,46,19.70
2015,07,18,04,47,19.70
2015,07,18,04,48,19.70
2015,07,18,04,49,19.70
2015,07,18,04,50,19.70
2015,07,18,04,51,19.70
2015,07,18,04,52,19.70
2015,07,18,04,53,19.70
2015,07,18,04,54,19.70
2015,07,18,04,55,19.70
2015,07,18,04,56,19.70
2015,07,18,04,57,19.70
2015,07,18,04,58,19.70
2015,07,18,04,59,19.70
2015,07,18,05,00,19.70
2015,07,18,05,01,19.70
2015,07,18,05,02,19.70
2015,07,18,05,03,19.70
2015,07,18,05,04,19.70
2015,07,18,05,05,19.70
2015,07,18,05,06,19.70
2015,07,18,05,07,19.70
2015,07,18,05,08,19.70
2015,07,18,05,09,19.70
2015,07,18,05,10,19.70
2015,07,18,05,11,19.70
2015,07,18,05,12,19.70
2015,07,18,05,13,19.70
2015,07,18,05,14,19.70
2015,07,18,05,15,19.70
2015,07,18,05,16,19.60
2015,07,18,05,17,19.60
2015,07,18,05,18,19.60
2015,07,18,05,19,19.60
2015,07,18,05,20,19.60
2015,07,18,05,21,19.50
2015,07,18,05,22,19.50
2015,07,18,05,23,19.50
2015,07,18,05,24,19.50
2015,07,18,05,25,19.50
2015,07,18,05,26,19.50
2015,07,18,05,27,19.50
2015,07,18,05,28,19.50
2015,07,18,05,29,19.50
2015,07,18,05,30,19.40
2015,07,18,05,31,19.40
2015,07,18,05,32,19.40
2015,07,18,05,33,19.40
2015,07,18,05,34,19.40
2015,07,18,05,35,19.40
2015,07,18,05,36,19.50
2015,07,18,05,37,19.50
2015,07,18,05,38,19.50
2015,07,18,05,39,19.50
2015,07,18,05,40,19.60
2015,07,18,05,41,19.60
2015,07,18,05,42,19.60
2015,07,18,05,43,19.60
2015,07,18,05,44,19.60
2015,07,18,05,45,19.60
2015,07,18,05,46,19.60
2015,07,18,05,47,19.60
2015,07,18,05,48,19.60
2015,07,18,05,49,19.60
2015,07,18,05,50,19.60
2015,07,18,05,51,19.60
2015,07,18,05,52,19.60
2015,07,18,05,53,19.60
2015,07,18,05,54,19.60
2015,07,18,05,55,19.60
2015,07,18,05,56,19.60
2015,07,18,05,57,19.60
2015,07,18,05,58,19.60
2015,07,18,05,59,19.60
2015,07,18,06,00,19.60
2015,07,18,06,01,19.60
2015,07,18,06,02,19.60
2015,07,18,06,03,19.60
2015,07,18,06,04,19.60
2015,07,18,06,05,19.60
2015,07,18,06,06,19.60
2015,07,18,06,07,19.60
2015,07,18,06,08,19.60
2015,07,18,06,09,19.60
2015,07,18,06,10,19.60
2015,07,18,06,11,19.60
2015,07,18,06,12,19.60
2015,07,18,06,13,19.60
2015,07,18,06,14,19.60
2015,07,18,06,15,19.60
2015,07,18,06,16,19.60
2015,07,18,06,17,19.60
2015,07,18,06,18,19.60
2015,07,18,06,19,19.60
2015,07,18,06,20,19.60
2015,07,18,06,21,19.60
2015,07,18,06,22,19.60
2015,07,18,06,23,19.60
2015,07,18,06,24,19.60
2015,07,18,06,25,19.60
2015,07,18,06,26,19.60
2015,07,18,06,27,19.60
2015,07,18,06,28,19.70
2015,07,18,06,29,19.70
2015,07,18,06,30,19.70
2015,07,18,06,31,19.70
2015,07,18,06,32,19.70
2015,07,18,06,33,19.70
2015,07,18,06,34,19.70
2015,07,18,06,35,19.70
2015,07,18,06,36,19.80
2015,07,18,06,37,19.80
2015,07,18,06,38,19.80
2015,07,18,06,39,19.80
2015,07,18,06,40,19.80
2015,07,18,06,41,19.80
2015,07,18,06,42,19.80
2015,07,18,06,43,19.80
2015,07,18,06,44,19.80
2015,07,18,06,45,19.80
2015,07,18,06,46,19.80
2015,07,18,06,47,19.80
2015,07,18,06,48,19.90
2015,07,18,06,49,19.90
2015,07,18,06,50,19.90
2015,07,18,06,51,19.90
2015,07,18,06,52,20.00
2015,07,18,06,53,20.00
2015,07,18,06,54,20.10
2015,07,18,06,55,20.10
2015,07,18,06,56,20.10
2015,07,18,06,57,20.10
2015,07,18,06,58,20.20
2015,07,18,06,59,20.20
2015,07,18,07,00,20.20
2015,07,18,07,01,20.20
2015,07,18,07,02,20.30
2015,07,18,07,03,20.30
2015,07,18,07,04,20.30
2015,07,18,07,05,20.30
2015,07,18,07,06,20.30
2015,07,18,07,07,20.30
2015,07,18,07,08,20.40
2015,07,18,07,09,20.40
2015,07,18,07,10,20.40
2015,07,18,07,11,20.40
2015,07,18,07,12,20.40
2015,07,18,07,13,20.50
2015,07,18,07,14,20.50
2015,07,18,07,15,20.50
2015,07,18,07,16,20.60
2015,07,18,07,17,20.60
2015,07,18,07,18,20.60
2015,07,18,07,19,20.60
2015,07,18,07,20,20.60
2015,07,18,07,21,20.70
2015,07,18,07,22,20.70
2015,07,18,07,23,20.70
2015,07,18,07,24,20.70
2015,07,18,07,25,20.70
2015,07,18,07,26,20.70
2015,07,18,07,27,20.70
2015,07,18,07,28,20.70
2015,07,18,07,29,20.80
2015,07,18,07,30,20.80
2015,07,18,07,31,20.80
2015,07,18,07,32,20.80
2015,07,18,07,33,20.80
2015,07,18,07,34,20.80
2015,07,18,07,35,20.80
2015,07,18,07,36,20.90
2015,07,18,07,37,20.90
2015,07,18,07,38,20.90
2015,07,18,07,39,20.90
2015,07,18,07,40,21.00
2015,07,18,07,41,21.00
2015,07,18,07,42,21.00
2015,07,18,07,43,21.10
2015,07,18,07,44,21.10
2015,07,18,07,45,21.10
2015,07,18,07,46,21.10
2015,07,18,07,47,21.20
2015,07,18,07,48,21.20
2015,07,18,07,49,21.20
2015,07,18,07,50,21.20
2015,07,18,07,51,21.20
2015,07,18,07,52,21.30
2015,07,18,07,53,21.30
2015,07,18,07,54,21.30
2015,07,18,07,55,21.30
2015,07,18,07,56,21.30
2015,07,18,07,57,21.30
2015,07,18,07,58,21.30
2015,07,18,07,59,21.30
2015,07,18,08,00,21.30
2015,07,18,08,01,21.30
2015,07,18,08,02,21.30
2015,07,18,08,03,21.30
2015,07,18,08,04,21.30
2015,07,18,08,05,21.40
2015,07,18,08,06,21.40
2015,07,18,08,07,21.40
2015,07,18,08,08,21.40
2015,07,18,08,09,21.50
2015,07,18,08,10,21.60
2015,07,18,08,11,21.60
2015,07,18,08,12,21.60
2015,07,18,08,13,21.60
2015,07,18,08,14,21.60
2015,07,18,08,15,21.60
2015,07,18,08,16,21.60
2015,07,18,08,17,21.60
2015,07,18,08,18,21.60
2015,07,18,08,19,21.70
2015,07,18,08,20,21.70
2015,07,18,08,21,21.70
2015,07,18,08,22,21.70
2015,07,18,08,23,21.70
2015,07,18,08,24,21.70
2015,07,18,08,25,21.70
2015,07,18,08,26,21.80
2015,07,18,08,27,21.80
2015,07,18,08,28,21.90
2015,07,18,08,29,21.90
2015,07,18,08,30,21.90
2015,07,18,08,31,21.90
2015,07,18,08,32,22.00
2015,07,18,08,33,22.00
2015,07,18,08,34,22.00
2015,07,18,08,35,22.00
2015,07,18,08,36,22.00
2015,07,18,08,37,22.10
2015,07,18,08,38,22.10
2015,07,18,08,39,22.10
2015,07,18,08,40,22.00
2015,07,18,08,41,22.00
2015,07,18,08,42,22.00
2015,07,18,08,43,22.00
2015,07,18,08,44,22.00
2015,07,18,08,45,22.10
2015,07,18,08,46,22.10
2015,07,18,08,47,22.10
2015,07,18,08,48,22.10
2015,07,18,08,49,22.00
2015,07,18,08,50,22.00
2015,07,18,08,51,22.00
2015,07,18,08,52,22.00
2015,07,18,08,53,22.10
2015,07,18,08,54,22.10
2015,07,18,08,55,22.20
2015,07,18,08,56,22.20
2015,07,18,08,57,22.20
2015,07,18,08,58,22.20
2015,07,18,08,59,22.20
2015,07,18,09,00,22.30
2015,07,18,09,01,22.30
2015,07,18,09,02,22.30
2015,07,18,09,03,22.30
2015,07,18,09,04,22.30
2015,07,18,09,05,22.30
2015,07,18,09,06,22.20
2015,07,18,09,07,22.10
2015,07,18,09,08,22.10
2015,07,18,09,09,22.00
2015,07,18,09,10,22.00
2015,07,18,09,11,21.90
2015,07,18,09,12,21.90
2015,07,18,09,13,22.00
2015,07,18,09,14,22.10
2015,07,18,09,15,22.10
2015,07,18,09,16,22.10
2015,07,18,09,17,22.10
2015,07,18,09,18,22.20
2015,07,18,09,19,22.20
2015,07,18,09,20,22.30
2015,07,18,09,21,22.30
2015,07,18,09,22,22.30
2015,07,18,09,23,22.40
2015,07,18,09,24,22.40
2015,07,18,09,25,22.40
2015,07,18,09,26,22.50
2015,07,18,09,27,22.50
2015,07,18,09,28,22.50
2015,07,18,09,29,22.50
2015,07,18,09,30,22.40
2015,07,18,09,31,22.40
2015,07,18,09,32,22.40
2015,07,18,09,33,22.40
2015,07,18,09,34,22.40
2015,07,18,09,35,22.40
2015,07,18,09,36,22.40
2015,07,18,09,37,22.50
2015,07,18,09,38,22.50
2015,07,18,09,39,22.60
2015,07,18,09,40,22.70
2015,07,18,09,41,22.70
2015,07,18,09,42,22.80
2015,07,18,09,43,22.90
2015,07,18,09,44,22.90
2015,07,18,09,45,23.00
2015,07,18,09,46,23.10
2015,07,18,09,47,23.10
2015,07,18,09,48,23.20
2015,07,18,09,49,23.20
2015,07,18,09,50,23.30
2015,07,18,09,51,23.30
2015,07,18,09,52,23.30
2015,07,18,09,53,23.40
2015,07,18,09,54,23.40
2015,07,18,09,55,23.40
2015,07,18,09,56,23.50
2015,07,18,09,57,23.60
2015,07,18,09,58,23.60
2015,07,18,09,59,23.70
2015,07,18,10,00,23.80
2015,07,18,10,01,23.80
2015,07,18,10,02,23.80
2015,07,18,10,03,23.80
2015,07,18,10,04,23.90
2015,07,18,10,05,23.90
2015,07,18,10,06,24.00
2015,07,18,10,07,24.00
2015,07,18,10,08,24.00
2015,07,18,10,09,24.00
2015,07,18,10,10,24.10
2015,07,18,10,11,24.10
2015,07,18,10,12,24.10
2015,07,18,10,13,24.10
2015,07,18,10,14,24.10
2015,07,18,10,15,24.10
2015,07,18,10,16,24.20
2015,07,18,10,17,24.20
2015,07,18,10,18,24.20
2015,07,18,10,19,24.20
2015,07,18,10,20,24.20
2015,07,18,10,21,24.20
2015,07,18,10,22,24.20
2015,07,18,10,23,24.20
2015,07,18,10,24,24.20
2015,07,18,10,25,24.20
2015,07,18,10,26,24.30
2015,07,18,10,27,24.30
2015,07,18,10,28,24.40
2015,07,18,10,29,24.50
2015,07,18,10,30,24.50
2015,07,18,10,31,24.60
2015,07,18,10,32,24.60
2015,07,18,10,33,24.50
2015,07,18,10,34,24.50
2015,07,18,10,35,24.60
2015,07,18,10,36,24.60
2015,07,18,10,37,24.70
2015,07,18,10,38,24.70
2015,07,18,10,39,24.70
2015,07,18,10,40,24.70
2015,07,18,10,41,24.60
2015,07,18,10,42,24.40
2015,07,18,10,43,24.20
2015,07,18,10,44,24.00
2015,07,18,10,45,23.70
2015,07,18,10,46,23.50
2015,07,18,10,47,23.30
2015,07,18,10,48,23.30
2015,07,18,10,49,23.20
2015,07,18,10,50,23.20
2015,07,18,10,51,23.10
2015,07,18,10,52,23.00
2015,07,18,10,53,23.00
2015,07,18,10,54,23.00
2015,07,18,10,55,23.00
2015,07,18,10,56,23.00
2015,07,18,10,57,23.00
2015,07,18,10,58,23.00
2015,07,18,10,59,23.00
2015,07,18,11,00,22.90
2015,07,18,11,01,22.90
2015,07,18,11,02,22.90
2015,07,18,11,03,22.80
2015,07,18,11,04,22.70
2015,07,18,11,05,22.60
2015,07,18,11,06,22.60
2015,07,18,11,07,22.60
2015,07,18,11,08,22.60
2015,07,18,11,09,22.60
2015,07,18,11,10,22.50
2015,07,18,11,11,22.50
2015,07,18,11,12,22.50
2015,07,18,11,13,22.50
2015,07,18,11,14,22.50
2015,07,18,11,15,22.40
2015,07,18,11,16,22.30
2015,07,18,11,17,22.30
2015,07,18,11,18,22.30
2015,07,18,11,19,22.30
2015,07,18,11,20,22.30
2015,07,18,11,21,22.20
2015,07,18,11,22,22.30
2015,07,18,11,23,22.40
2015,07,18,11,24,22.40
2015,07,18,11,25,22.50
2015,07,18,11,26,22.50
2015,07,18,11,27,22.50
2015,07,18,11,28,22.50
2015,07,18,11,29,22.50
2015,07,18,11,30,22.50
2015,07,18,11,31,22.50
2015,07,18,11,32,22.60
2015,07,18,11,33,22.60
2015,07,18,11,34,22.60
2015,07,18,11,35,22.60
2015,07,18,11,36,22.60
2015,07,18,11,37,22.60
2015,07,18,11,38,22.60
2015,07,18,11,39,22.70
2015,07,18,11,40,22.80
2015,07,18,11,41,22.90
2015,07,18,11,42,22.90
2015,07,18,11,43,22.90
2015,07,18,11,44,22.90
2015,07,18,11,45,22.90
2015,07,18,11,46,23.00
2015,07,18,11,47,23.00
2015,07,18,11,48,22.90
2015,07,18,11,49,22.90
2015,07,18,11,50,22.90
2015,07,18,11,51,22.90
2015,07,18,11,52,22.90
2015,07,18,11,53,22.90
2015,07,18,11,54,22.90
2015,07,18,11,55,23.00
2015,07,18,11,56,23.00
2015,07,18,11,57,23.00
2015,07,18,11,58,23.10
2015,07,18,11,59,23.20
2015,07,18,12,00,23.20
2015,07,18,12,01,23.30
2015,07,18,12,02,23.40
2015,07,18,12,03,23.50
2015,07,18,12,04,23.60
2015,07,18,12,05,23.60
2015,07,18,12,06,23.70
2015,07,18,12,07,23.70
2015,07,18,12,08,23.70
2015,07,18,12,09,23.70
2015,07,18,12,10,23.60
2015,07,18,12,11,23.70
2015,07,18,12,12,23.70
2015,07,18,12,13,23.70
2015,07,18,12,14,23.70
2015,07,18,12,15,23.80
2015,07,18,12,16,23.80
2015,07,18,12,17,23.90
2015,07,18,12,18,23.90
2015,07,18,12,19,23.90
2015,07,18,12,20,24.00
2015,07,18,12,21,24.00
2015,07,18,12,22,24.10
2015,07,18,12,23,24.20
2015,07,18,12,24,24.20
2015,07,18,12,25,24.30
2015,07,18,12,26,24.30
2015,07,18,12,27,24.40
2015,07,18,12,28,24.50
2015,07,18,12,29,24.50
2015,07,18,12,30,24.60
2015,07,18,12,31,24.60
2015,07,18,12,32,24.60
2015,07,18,12,33,24.60
2015,07,18,12,34,24.60
2015,07,18,12,35,24.60
2015,07,18,12,36,24.60
2015,07,18,12,37,24.50
2015,07,18,12,38,24.50
2015,07,18,12,39,24.60
2015,07,18,12,40,24.60
2015,07,18,12,41,24.70
2015,07,18,12,42,24.70
2015,07,18,12,43,24.80
2015,07,18,12,44,24.80
2015,07,18,12,45,24.90
2015,07,18,12,46,25.00
2015,07,18,12,47,25.00
2015,07,18,12,48,25.10
2015,07,18,12,49,25.10
2015,07,18,12,50,25.00
2015,07,18,12,51,24.90
2015,07,18,12,52,24.80
2015,07,18,12,53,24.80
2015,07,18,12,54,24.80
2015,07,18,12,55,24.80
2015,07,18,12,56,24.80
2015,07,18,12,57,24.80
2015,07,18,12,58,24.80
2015,07,18,12,59,24.80
2015,07,18,13,00,24.80
2015,07,18,13,01,24.90
2015,07,18,13,02,24.90
2015,07,18,13,03,24.90
2015,07,18,13,04,25.00
2015,07,18,13,05,25.00
2015,07,18,13,06,25.10
2015,07,18,13,07,25.20
2015,07,18,13,08,25.20
2015,07,18,13,09,25.20
2015,07,18,13,10,25.30
2015,07,18,13,11,25.30
2015,07,18,13,12,25.40
2015,07,18,13,13,25.40
2015,07,18,13,14,25.40
2015,07,18,13,15,25.50
2015,07,18,13,16,25.50
2015,07,18,13,17,25.60
2015,07,18,13,18,25.70
2015,07,18,13,19,25.80
2015,07,18,13,20,25.80
2015,07,18,13,21,25.80
2015,07,18,13,22,25.90
2015,07,18,13,23,25.90
2015,07,18,13,24,26.00
2015,07,18,13,25,26.00
2015,07,18,13,26,26.00
2015,07,18,13,27,26.10
2015,07,18,13,28,26.10
2015,07,18,13,29,26.10
2015,07,18,13,30,26.20
2015,07,18,13,31,26.20
2015,07,18,13,32,26.30
2015,07,18,13,33,26.30
2015,07,18,13,34,26.40
2015,07,18,13,35,26.50
2015,07,18,13,36,26.50
2015,07,18,13,37,26.50
2015,07,18,13,38,26.50
2015,07,18,13,39,26.40
2015,07,18,13,40,26.40
2015,07,18,13,41,26.40
2015,07,18,13,42,26.40
2015,07,18,13,43,26.40
2015,07,18,13,44,26.40
2015,07,18,13,45,26.40
2015,07,18,13,46,26.40
2015,07,18,13,47,26.40
2015,07,18,13,48,26.40
2015,07,18,13,49,26.30
2015,07,18,13,50,26.30
2015,07,18,13,51,26.30
2015,07,18,13,52,26.30
2015,07,18,13,53,26.30
2015,07,18,13,54,26.30
2015,07,18,13,55,26.30
2015,07,18,13,56,26.30
2015,07,18,13,57,26.20
2015,07,18,13,58,26.10
2015,07,18,13,59,26.10
2015,07,18,14,00,26.10
2015,07,18,14,01,26.10
2015,07,18,14,02,26.20
2015,07,18,14,03,26.20
2015,07,18,14,04,26.20
2015,07,18,14,05,26.30
2015,07,18,14,06,26.50
2015,07,18,14,07,26.60
2015,07,18,14,08,26.60
2015,07,18,14,09,26.70
2015,07,18,14,10,26.70
2015,07,18,14,11,26.80
2015,07,18,14,12,26.90
2015,07,18,14,13,27.00
2015,07,18,14,14,27.10
2015,07,18,14,15,27.20
2015,07,18,14,16,27.30
2015,07,18,14,17,27.50
2015,07,18,14,18,27.60
2015,07,18,14,19,27.70
2015,07,18,14,20,27.80
2015,07,18,14,21,27.70
2015,07,18,14,22,27.50
2015,07,18,14,23,27.30
2015,07,18,14,24,27.20
2015,07,18,14,25,27.20
2015,07,18,14,26,27.20
2015,07,18,14,27,27.20
2015,07,18,14,28,27.30
2015,07,18,14,29,27.40
2015,07,18,14,30,27.50
2015,07,18,14,31,27.60
2015,07,18,14,32,27.70
2015,07,18,14,33,27.70
2015,07,18,14,34,27.80
2015,07,18,14,35,27.90
2015,07,18,14,36,28.00
2015,07,18,14,37,28.10
2015,07,18,14,38,28.20
2015,07,18,14,39,28.20
2015,07,18,14,40,28.30
2015,07,18,14,41,28.30
2015,07,18,14,42,28.30
2015,07,18,14,43,28.40
2015,07,18,14,44,28.40
2015,07,18,14,45,28.40
2015,07,18,14,46,28.40
2015,07,18,14,47,28.40
2015,07,18,14,48,28.30
2015,07,18,14,49,28.30
2015,07,18,14,50,28.30
2015,07,18,14,51,28.40
2015,07,18,14,52,28.40
2015,07,18,14,53,28.50
2015,07,18,14,54,28.50
2015,07,18,14,55,28.60
2015,07,18,14,56,28.60
2015,07,18,14,57,28.60
2015,07,18,14,58,28.60
2015,07,18,14,59,28.60
2015,07,18,15,00,28.60
2015,07,18,15,01,28.70
2015,07,18,15,02,28.70
2015,07,18,15,03,28.70
2015,07,18,15,04,28.70
2015,07,18,15,05,28.70
2015,07,18,15,06,28.70
2015,07,18,15,07,28.60
2015,07,18,15,08,28.60
2015,07,18,15,09,28.70
2015,07,18,15,10,28.70
2015,07,18,15,11,28.80
2015,07,18,15,12,28.90
2015,07,18,15,13,29.00
2015,07,18,15,14,29.10
2015,07,18,15,15,29.20
2015,07,18,15,16,29.20
2015,07,18,15,17,29.20
2015,07,18,15,18,29.10
2015,07,18,15,19,29.10
2015,07,18,15,20,29.10
2015,07,18,15,21,29.10
2015,07,18,15,22,29.00
2015,07,18,15,23,28.90
2015,07,18,15,24,28.80
2015,07,18,15,25,28.80
2015,07,18,15,26,28.70
2015,07,18,15,27,28.70
2015,07,18,15,28,28.70
2015,07,18,15,29,28.80
2015,07,18,15,30,28.80
2015,07,18,15,31,28.80
2015,07,18,15,32,28.80
2015,07,18,15,33,28.80
2015,07,18,15,34,28.80
2015,07,18,15,35,28.80
2015,07,18,15,36,28.80
2015,07,18,15,37,28.90
2015,07,18,15,38,28.90
2015,07,18,15,39,28.90
2015,07,18,15,40,28.90
2015,07,18,15,41,28.90
2015,07,18,15,42,28.80
2015,07,18,15,43,28.80
2015,07,18,15,44,28.70
2015,07,18,15,45,28.80
2015,07,18,15,46,28.80
2015,07,18,15,47,28.90
2015,07,18,15,48,29.00
2015,07,18,15,49,29.00
2015,07,18,15,50,29.00
2015,07,18,15,51,29.10
2015,07,18,15,52,29.10
2015,07,18,15,53,29.10
2015,07,18,15,54,29.20
2015,07,18,15,55,29.20
2015,07,18,15,56,29.30
2015,07,18,15,57,29.30
2015,07,18,15,58,29.30
2015,07,18,15,59,29.30
2015,07,18,16,00,29.20
2015,07,18,16,01,29.20
2015,07,18,16,02,29.10
2015,07,18,16,03,29.10
2015,07,18,16,04,29.00
2015,07,18,16,05,28.90
2015,07,18,16,06,28.90
2015,07,18,16,07,28.90
2015,07,18,16,08,28.90
2015,07,18,16,09,28.90
2015,07,18,16,10,28.90
2015,07,18,16,11,28.90
2015,07,18,16,12,29.00
2015,07,18,16,13,29.00
2015,07,18,16,14,29.00
2015,07,18,16,15,29.00
2015,07,18,16,16,28.90
2015,07,18,16,17,28.70
2015,07,18,16,18,28.50
2015,07,18,16,19,28.50
2015,07,18,16,20,28.50
2015,07,18,16,21,28.50
2015,07,18,16,22,28.40
2015,07,18,16,23,28.30
2015,07,18,16,24,28.20
2015,07,18,16,25,28.00
2015,07,18,16,26,27.90
2015,07,18,16,27,27.80
2015,07,18,16,28,27.70
2015,07,18,16,29,27.50
2015,07,18,16,30,27.30
2015,07,18,16,31,27.20
2015,07,18,16,32,27.10
2015,07,18,16,33,27.20
2015,07,18,16,34,27.50
2015,07,18,16,35,27.60
2015,07,18,16,36,27.50
2015,07,18,16,37,27.30
2015,07,18,16,38,27.20
2015,07,18,16,39,27.30
2015,07,18,16,40,27.50
2015,07,18,16,41,27.70
2015,07,18,16,42,27.50
2015,07,18,16,43,27.20
2015,07,18,16,44,26.80
2015,07,18,16,45,26.30
2015,07,18,16,46,26.00
2015,07,18,16,47,25.90
2015,07,18,16,48,25.80
2015,07,18,16,49,25.80
2015,07,18,16,50,25.70
2015,07,18,16,51,25.60
2015,07,18,16,52,25.60
2015,07,18,16,53,25.60
2015,07,18,16,54,25.60
2015,07,18,16,55,25.50
2015,07,18,16,56,25.50
2015,07,18,16,57,25.60
2015,07,18,16,58,25.50
2015,07,18,16,59,25.40
2015,07,18,17,00,25.40
2015,07,18,17,01,25.50
2015,07,18,17,02,25.50
2015,07,18,17,03,25.60
2015,07,18,17,04,25.70
2015,07,18,17,05,25.80
2015,07,18,17,06,26.00
2015,07,18,17,07,26.20
2015,07,18,17,08,26.30
2015,07,18,17,09,26.50
2015,07,18,17,10,26.60
2015,07,18,17,11,26.80
2015,07,18,17,12,27.10
2015,07,18,17,13,27.40
2015,07,18,17,14,27.60
2015,07,18,17,15,27.70
2015,07,18,17,16,27.80
2015,07,18,17,17,28.10
2015,07,18,17,18,28.40
2015,07,18,17,19,28.60